Terug naar catalogus

BEIDOU 2

ActiefNavigatieMEO
NORAD 31115·PAYLOAD·🇨🇳 China

Gelanceerd Apr 13, 2007 vanaf Xichang Satellite Launch Center

Loading…

Volgende Passages (komende 24 uur)

TLE

VersSource: Space-Track

Epoch: Sep 13, 2026, 08:06 UTC

1 31115U 07011A   26256.33750506 -.00000002  00000-0  00000-0 0  9993
2 31115  50.9070 216.3500 0002548 346.0125  13.9351  1.77349358 77712

Volg BEIDOU 2 in realtime met AllMySat

Download on the App Store